Precipitable_Water
0.21 0.14 0.12 0.11 0.12 0.14 0.14 0.15 0.14 0.14 0.14 0.13 0.13 0.12 0.11 0.10 0.11 0.13 0.13 0.16 0.18 0.14 0.11 0.12 0.13 0.13 0.13 0.13 0.14 0.15 0.16 0.15 0.15 0.14 0.13 0.14 0.15 0.17 0.18 0.19 0.20 0.19 0.19 0.22 0.26 0.26 0.30 0.35 0.44 0.56 0.62 0.69 0.80 0.88 0.96 1.07 1.14 1.20 1.19 1.22 1.32 1.39 1.37 1.36 1.39 1.37 1.34 1.30 1.24 1.23 1.17 1.11 1.10 1.06 1.04 1.03 1.00 0.98 0.96 0.94 0.90 0.87 0.90 0.98 1.06 1.08
0.20 0.14 0.13 0.14 0.15 0.15 0.16 0.17 0.17 0.15 0.15 0.14 0.12 0.11 0.10 0.12 0.10 0.12 0.12 0.16 0.18 0.14 0.12 0.13 0.12 0.11 0.10 0.11 0.12 0.14 0.15 0.13 0.13 0.13 0.13 0.12 0.13 0.14 0.15 0.16 0.17 0.18 0.22 0.23 0.22 0.23 0.26 0.30 0.35 0.40 0.47 0.57 0.62 0.75 0.83 0.94 1.04 1.13 1.21 1.20 1.23 1.33 1.43 1.43 1.39 1.40 1.37 1.35 1.32 1.22 1.14 1.11 1.08 1.06 1.03 1.00 1.00 0.98 0.97 0.94 0.90 0.90 0.93 0.99 1.05 1.08
0.15 0.13 0.14 0.17 0.18 0.19 0.18 0.17 0.17 0.15 0.13 0.14 0.12 0.11 0.11 0.11 0.13 0.14 0.14 0.17 0.18 0.17 0.12 0.13 0.11 0.10 0.10 0.10 0.09 0.10 0.12 0.13 0.14 0.14 0.13 0.13 0.12 0.12 0.13 0.14 0.15 0.17 0.18 0.20 0.20 0.22 0.24 0.26 0.30 0.34 0.38 0.44 0.55 0.66 0.74 0.83 0.90 0.98 1.07 1.16 1.20 1.28 1.34 1.38 1.42 1.40 1.39 1.36 1.37 1.38 1.26 1.18 1.14 1.14 1.09 1.05 1.03 1.01 0.97 0.92 0.91 0.93 0.96 0.99 1.02 1.06
0.12 0.15 0.17 0.20 0.20 0.18 0.16 0.17 0.16 0.15 0.14 0.12 0.12 0.11 0.09 0.12 0.11 0.09 0.15 0.17 0.18 0.17 0.14 0.14 0.12 0.11 0.11 0.11 0.10 0.10 0.11 0.11 0.13 0.15 0.15 0.17 0.14 0.12 0.12 0.13 0.15 0.15 0.15 0.16 0.17 0.19 0.22 0.24 0.28 0.30 0.32 0.36 0.43 0.53 0.61 0.71 0.79 0.89 0.94 1.06 1.14 1.20 1.27 1.33 1.36 1.39 1.39 1.38 1.38 1.34 1.33 1.27 1.23 1.16 1.12 1.07 1.05 1.02 0.96 0.90 0.89 0.91 0.94 0.98 1.02 1.07
0.13 0.17 0.21 0.21 0.20 0.18 0.15 0.15 0.14 0.13 0.12 0.14 0.12 0.11 0.11 0.11 0.12 0.12 0.13 0.17 0.18 0.19 0.18 0.16 0.13 0.10 0.11 0.08 0.08 0.11 0.13 0.12 0.11 0.12 0.13 0.15 0.16 0.16 0.15 0.14 0.14 0.14 0.15 0.16 0.17 0.19 0.21 0.22 0.23 0.26 0.30 0.34 0.35 0.41 0.50 0.56 0.68 0.78 0.88 0.93 1.05 1.14 1.20 1.27 1.32 1.35 1.37 1.34 1.31 1.33 1.27 1.29 1.18 1.16 1.15 1.06 1.01 1.01 0.95 0.89 0.86 0.90 1.00 1.06 1.09 1.13
0.16 0.21 0.23 0.20 0.18 0.18 0.16 0.14 0.14 0.14 0.11 0.12 0.13 0.12 0.12 0.13 0.13 0.14 0.16 0.15 0.13 0.13 0.19 0.15 0.09 0.08 0.11 0.11 0.10 0.12 0.12 0.11 0.12 0.11 0.10 0.11 0.13 0.15 0.15 0.13 0.14 0.15 0.17 0.16 0.16 0.17 0.19 0.19 0.22 0.24 0.27 0.30 0.33 0.35 0.41 0.50 0.56 0.68 0.77 0.86 0.94 1.03 1.16 1.20 1.22 1.29 1.35 1.33 1.27 1.23 1.24 1.17 1.16 1.10 1.11 1.04 0.98 0.96 0.93 0.86 0.87 0.92 1.04 1.10 1.12 1.14
0.18 0.22 0.22 0.18 0.18 0.17 0.16 0.14 0.16 0.15 0.12 0.10 0.11 0.14 0.14 0.14 0.14 0.14 0.14 0.14 0.10 0.09 0.14 0.19 0.11 0.08 0.11 0.12 0.12 0.12 0.13 0.12 0.12 0.11 0.09 0.10 0.10 0.12 0.14 0.14 0.14 0.13 0.14 0.16 0.17 0.18 0.18 0.19 0.20 0.21 0.24 0.26 0.29 0.33 0.38 0.44 0.51 0.56 0.70 0.80 0.85 0.94 1.04 1.17 1.19 1.20 1.28 1.29 1.28 1.28 1.25 1.24 1.13 1.11 1.15 1.16 1.14 1.07 0.97 0.90 0.89 0.95 1.04 1.11 1.13 1.15
0.21 0.20 0.19 0.20 0.18 0.17 0.16 0.14 0.16 0.16 0.13 0.11 0.16 0.16 0.16 0.15 0.14 0.14 0.14 0.14 0.13 0.17 0.17 0.17 0.15 0.11 0.09 0.11 0.13 0.13 0.12 0.11 0.11 0.12 0.12 0.10 0.10 0.10 0.11 0.13 0.14 0.14 0.14 0.14 0.16 0.16 0.17 0.18 0.18 0.17 0.20 0.23 0.25 0.31 0.37 0.40 0.46 0.50 0.57 0.73 0.80 0.85 0.94 1.07 1.17 1.17 1.19 1.23 1.25 1.25 1.26 1.25 1.20 1.18 1.16 1.19 1.16 1.15 1.06 0.94 0.90 0.96 1.05 1.12 1.16 1.17
0.20 0.17 0.18 0.17 0.17 0.17 0.15 0.16 0.18 0.18 0.14 0.14 0.17 0.19 0.16 0.16 0.16 0.15 0.14 0.14 0.14 0.13 0.09 0.13 0.16 0.11 0.10 0.11 0.14 0.14 0.10 0.10 0.11 0.13 0.15 0.14 0.13 0.12 0.12 0.13 0.13 0.15 0.15 0.14 0.15 0.15 0.17 0.17 0.18 0.18 0.19 0.21 0.25 0.29 0.32 0.38 0.42 0.47 0.53 0.62 0.75 0.82 0.84 0.96 1.07 1.15 1.17 1.18 1.23 1.24 1.23 1.22 1.24 1.23 1.22 1.23 1.22 1.14 1.12 1.03 0.99 1.00 1.07 1.14 1.19 1.20
0.21 0.21 0.21 0.21 0.18 0.15 0.19 0.20 0.20 0.19 0.15 0.19 0.21 0.21 0.20 0.18 0.17 0.15 0.14 0.13 0.13 0.10 0.07 0.10 0.13 0.08 0.08 0.11 0.12 0.14 0.12 0.12 0.13 0.14 0.16 0.17 0.17 0.15 0.14 0.14 0.14 0.14 0.15 0.16 0.15 0.15 0.17 0.18 0.19 0.20 0.21 0.22 0.23 0.27 0.31 0.35 0.41 0.45 0.50 0.55 0.63 0.75 0.82 0.84 0.92 1.07 1.08 1.11 1.17 1.20 1.17 1.17 1.19 1.22 1.21 1.21 1.22 1.16 1.14 1.10 1.05 1.04 1.07 1.13 1.17 1.19
0.24 0.27 0.28 0.22 0.19 0.21 0.21 0.22 0.22 0.22 0.21 0.23 0.22 0.19 0.18 0.16 0.15 0.14 0.13 0.13 0.10 0.06 0.08 0.10 0.12 0.11 0.07 0.10 0.11 0.11 0.11 0.13 0.14 0.15 0.16 0.18 0.20 0.20 0.19 0.17 0.15 0.15 0.15 0.15 0.16 0.16 0.16 0.18 0.20 0.21 0.20 0.21 0.23 0.25 0.28 0.31 0.35 0.41 0.46 0.51 0.55 0.67 0.79 0.82 0.83 0.92 1.02 1.02 1.05 1.15 1.19 1.19 1.18 1.18 1.18 1.17 1.18 1.18 1.15 1.08 1.07 1.05 1.06 1.11 1.16 1.19
0.24 0.25 0.23 0.24 0.28 0.25 0.25 0.22 0.25 0.25 0.24 0.22 0.19 0.16 0.15 0.14 0.12 0.11 0.11 0.12 0.07 0.05 0.08 0.10 0.11 0.11 0.07 0.07 0.10 0.12 0.13 0.13 0.13 0.14 0.16 0.17 0.19 0.21 0.22 0.22 0.21 0.20 0.18 0.17 0.17 0.17 0.17 0.17 0.18 0.20 0.20 0.21 0.22 0.23 0.25 0.28 0.32 0.35 0.41 0.46 0.50 0.57 0.69 0.77 0.81 0.83 0.92 0.98 0.97 1.07 1.16 1.18 1.18 1.18 1.15 1.15 1.16 1.16 1.16 1.13 1.10 1.06 1.05 1.09 1.15 1.18
0.19 0.20 0.23 0.25 0.29 0.25 0.22 0.20 0.21 0.23 0.23 0.21 0.18 0.17 0.11 0.09 0.09 0.07 0.08 0.06 0.06 0.05 0.08 0.10 0.11 0.09 0.08 0.08 0.10 0.12 0.14 0.15 0.16 0.16 0.17 0.19 0.21 0.23 0.23 0.24 0.25 0.26 0.25 0.24 0.22 0.20 0.19 0.19 0.18 0.18 0.19 0.20 0.22 0.21 0.22 0.24 0.28 0.32 0.35 0.41 0.45 0.49 0.58 0.68 0.75 0.78 0.84 0.91 0.93 0.99 1.05 1.13 1.10 1.09 1.10 1.11 1.14 1.17 1.18 1.15 1.10 1.09 1.05 1.04 1.11 1.17
0.17 0.20 0.21 0.23 0.25 0.28 0.25 0.16 0.16 0.15 0.19 0.18 0.15 0.14 0.11 0.09 0.08 0.07 0.07 0.07 0.06 0.08 0.09 0.10 0.13 0.08 0.09 0.09 0.12 0.13 0.17 0.18 0.18 0.19 0.21 0.23 0.23 0.24 0.24 0.25 0.25 0.26 0.26 0.27 0.27 0.26 0.24 0.23 0.23 0.24 0.23 0.22 0.22 0.22 0.24 0.25 0.26 0.28 0.30 0.34 0.40 0.44 0.52 0.58 0.65 0.72 0.77 0.83 0.84 0.89 1.02 1.06 1.06 0.99 1.02 1.07 1.12 1.17 1.18 1.19 1.15 1.13 1.11 1.07 1.04 1.07
0.14 0.14 0.17 0.20 0.17 0.28 0.24 0.22 0.19 0.16 0.17 0.18 0.19 0.16 0.13 0.11 0.09 0.07 0.08 0.06 0.06 0.07 0.10 0.12 0.09 0.06 0.05 0.06 0.11 0.15 0.18 0.21 0.22 0.23 0.24 0.24 0.25 0.25 0.25 0.25 0.25 0.25 0.25 0.25 0.26 0.28 0.29 0.30 0.29 0.27 0.26 0.28 0.27 0.25 0.25 0.25 0.26 0.28 0.29 0.30 0.33 0.40 0.47 0.52 0.56 0.63 0.69 0.75 0.76 0.78 1.01 1.01 1.03 1.01 0.98 1.01 1.06 1.08 1.08 1.09 1.13 1.17 1.18 1.15 1.13 1.11
0.16 0.15 0.19 0.25 0.25 0.27 0.22 0.26 0.24 0.20 0.19 0.20 0.21 0.20 0.15 0.13 0.15 0.10 0.11 0.11 0.10 0.09 0.08 0.09 0.07 0.08 0.07 0.10 0.14 0.15 0.16 0.19 0.22 0.23 0.24 0.23 0.24 0.24 0.22 0.22 0.22 0.23 0.23 0.24 0.24 0.25 0.27 0.30 0.32 0.32 0.32 0.31 0.30 0.32 0.32 0.28 0.26 0.26 0.27 0.29 0.30 0.35 0.42 0.49 0.53 0.57 0.64 0.72 0.75 0.71 0.76 0.99 1.00 1.03 1.03 1.02 1.04 1.00 1.02 1.10 1.11 1.08 1.03 1.03 1.09 1.14
0.18 0.15 0.22 0.24 0.28 0.26 0.25 0.27 0.24 0.25 0.14 0.19 0.19 0.14 0.16 0.21 0.17 0.14 0.14 0.15 0.14 0.12 0.07 0.11 0.09 0.09 0.12 0.11 0.14 0.14 0.13 0.15 0.19 0.21 0.21 0.20 0.20 0.20 0.19 0.20 0.21 0.22 0.22 0.23 0.24 0.25 0.26 0.27 0.28 0.29 0.32 0.34 0.35 0.35 0.34 0.34 0.33 0.29 0.26 0.28 0.29 0.32 0.38 0.44 0.49 0.55 0.60 0.66 0.74 0.76 0.72 0.77 0.96 0.97 0.99 1.03 1.02 1.00 1.02 1.04 1.04 1.04 1.04 1.05 1.06 1.09
0.16 0.16 0.24 0.22 0.20 0.27 0.31 0.30 0.28 0.28 0.25 0.21 0.15 0.18 0.23 0.25 0.22 0.17 0.11 0.12 0.12 0.09 0.08 0.10 0.08 0.07 0.08 0.05 0.11 0.13 0.13 0.15 0.15 0.17 0.17 0.17 0.18 0.17 0.18 0.19 0.19 0.21 0.22 0.23 0.24 0.25 0.26 0.26 0.27 0.28 0.29 0.31 0.34 0.36 0.38 0.38 0.40 0.39 0.37 0.33 0.28 0.29 0.31 0.36 0.44 0.50 0.57 0.61 0.68 0.74 0.76 0.77 0.85 0.94 0.94 0.99 1.03 1.04 1.04 1.04 1.01 1.02 1.03 1.06 1.09 1.10
0.23 0.17 0.21 0.25 0.24 0.28 0.31 0.29 0.26 0.30 0.30 0.22 0.20 0.27 0.17 0.13 0.13 0.18 0.15 0.09 0.09 0.08 0.09 0.09 0.10 0.09 0.08 0.07 0.10 0.09 0.09 0.11 0.13 0.15 0.16 0.15 0.16 0.17 0.17 0.18 0.19 0.21 0.22 0.24 0.25 0.26 0.25 0.26 0.27 0.28 0.29 0.31 0.33 0.34 0.36 0.39 0.42 0.44 0.44 0.42 0.38 0.31 0.29 0.31 0.37 0.45 0.52 0.58 0.64 0.69 0.74 0.77 0.82 0.88 0.95 0.96 0.96 1.00 1.03 1.02 0.99 0.98 1.00 1.07 1.12 1.12
0.26 0.18 0.19 0.26 0.26 0.28 0.28 0.25 0.17 0.22 0.29 0.29 0.30 0.23 0.27 0.20 0.15 0.14 0.15 0.14 0.13 0.10 0.10 0.09 0.10 0.07 0.09 0.09 0.09 0.08 0.08 0.10 0.12 0.13 0.14 0.15 0.16 0.16 0.16 0.17 0.18 0.20 0.22 0.24 0.26 0.26 0.26 0.27 0.28 0.29 0.30 0.31 0.33 0.34 0.37 0.38 0.41 0.42 0.44 0.46 0.44 0.43 0.37 0.34 0.35 0.39 0.45 0.52 0.57 0.64 0.71 0.74 0.79 0.87 0.93 0.96 0.93 0.92 0.98 1.01 0.98 0.96 0.97 1.02 1.11 1.09
0.23 0.24 0.16 0.25 0.31 0.30 0.20 0.23 0.19 0.21 0.19 0.21 0.22 0.20 0.22 0.21 0.25 0.20 0.19 0.15 0.14 0.11 0.11 0.11 0.08 0.08 0.09 0.11 0.10 0.09 0.10 0.11 0.12 0.12 0.14 0.14 0.15 0.16 0.17 0.18 0.19 0.20 0.21 0.23 0.25 0.25 0.25 0.27 0.28 0.30 0.32 0.35 0.37 0.38 0.38 0.39 0.39 0.40 0.43 0.45 0.46 0.45 0.44 0.36 0.31 0.35 0.40 0.48 0.53 0.59 0.65 0.69 0.70 0.79 0.87 0.92 0.92 0.91 0.94 0.97 0.97 0.93 0.95 0.97 1.04 1.06
0.23 0.23 0.18 0.23 0.23 0.22 0.21 0.27 0.25 0.24 0.24 0.22 0.21 0.19 0.20 0.18 0.16 0.13 0.12 0.21 0.18 0.15 0.12 0.11 0.09 0.11 0.11 0.13 0.13 0.12 0.12 0.12 0.13 0.14 0.14 0.15 0.16 0.17 0.18 0.19 0.19 0.20 0.21 0.22 0.23 0.23 0.25 0.26 0.27 0.28 0.30 0.33 0.36 0.36 0.36 0.37 0.39 0.41 0.42 0.43 0.45 0.47 0.49 0.45 0.35 0.32 0.36 0.43 0.49 0.54 0.60 0.65 0.70 0.73 0.81 0.85 0.91 0.90 0.91 0.91 0.90 0.89 0.87 0.87 0.87 0.91
0.29 0.27 0.23 0.20 0.21 0.22 0.25 0.29 0.31 0.29 0.29 0.27 0.25 0.22 0.24 0.22 0.21 0.17 0.12 0.15 0.19 0.18 0.18 0.17 0.14 0.10 0.13 0.15 0.15 0.15 0.15 0.15 0.15 0.15 0.14 0.15 0.16 0.18 0.19 0.19 0.20 0.20 0.20 0.22 0.23 0.24 0.25 0.26 0.28 0.28 0.29 0.31 0.33 0.35 0.37 0.40 0.43 0.44 0.44 0.45 0.45 0.45 0.48 0.50 0.45 0.34 0.34 0.39 0.44 0.51 0.56 0.61 0.66 0.70 0.77 0.81 0.83 0.90 0.88 0.87 0.85 0.84 0.83 0.83 0.83 0.83
0.33 0.25 0.22 0.22 0.25 0.27 0.29 0.31 0.32 0.31 0.30 0.25 0.26 0.26 0.25 0.21 0.21 0.19 0.18 0.19 0.16 0.18 0.16 0.17 0.14 0.11 0.14 0.18 0.18 0.18 0.18 0.18 0.17 0.16 0.14 0.15 0.16 0.17 0.18 0.19 0.19 0.19 0.21 0.23 0.24 0.25 0.26 0.28 0.29 0.29 0.30 0.31 0.32 0.35 0.39 0.42 0.44 0.45 0.44 0.44 0.45 0.45 0.47 0.50 0.51 0.43 0.34 0.36 0.41 0.48 0.52 0.56 0.61 0.67 0.74 0.77 0.79 0.83 0.88 0.86 0.83 0.80 0.78 0.80 0.79 0.78
0.26 0.28 0.24 0.21 0.20 0.21 0.23 0.26 0.26 0.29 0.28 0.24 0.23 0.26 0.27 0.27 0.25 0.24 0.24 0.25 0.18 0.18 0.18 0.16 0.12 0.11 0.16 0.19 0.20 0.20 0.19 0.18 0.16 0.15 0.15 0.14 0.14 0.15 0.17 0.18 0.19 0.20 0.21 0.23 0.24 0.26 0.27 0.28 0.28 0.29 0.30 0.31 0.34 0.39 0.41 0.41 0.40 0.41 0.42 0.43 0.44 0.45 0.47 0.51 0.52 0.48 0.38 0.34 0.37 0.44 0.49 0.53 0.58 0.63 0.70 0.73 0.74 0.76 0.80 0.84 0.82 0.79 0.77 0.75 0.74 0.75
0.29 0.28 0.25 0.20 0.18 0.17 0.16 0.16 0.17 0.19 0.21 0.25 0.27 0.26 0.27 0.25 0.24 0.22 0.19 0.20 0.17 0.19 0.21 0.18 0.15 0.16 0.18 0.19 0.19 0.19 0.19 0.17 0.16 0.15 0.15 0.15 0.14 0.14 0.16 0.18 0.21 0.22 0.22 0.23 0.24 0.26 0.26 0.28 0.30 0.30 0.31 0.35 0.39 0.39 0.38 0.38 0.38 0.40 0.41 0.42 0.44 0.45 0.47 0.50 0.52 0.50 0.41 0.34 0.34 0.40 0.47 0.52 0.57 0.61 0.66 0.70 0.71 0.71 0.72 0.75 0.78 0.77 0.75 0.74 0.72 0.72
0.29 0.30 0.28 0.25 0.22 0.20 0.21 0.21 0.24 0.25 0.24 0.22 0.23 0.24 0.24 0.26 0.26 0.25 0.23 0.20 0.17 0.19 0.19 0.19 0.18 0.18 0.18 0.17 0.19 0.18 0.17 0.16 0.15 0.15 0.15 0.14 0.14 0.15 0.17 0.20 0.22 0.23 0.22 0.22 0.24 0.26 0.27 0.29 0.30 0.31 0.34 0.36 0.37 0.36 0.35 0.35 0.38 0.41 0.43 0.43 0.45 0.46 0.48 0.50 0.51 0.50 0.43 0.35 0.33 0.38 0.47 0.51 0.54 0.59 0.63 0.67 0.68 0.69 0.69 0.68 0.71 0.73 0.73 0.73 0.72 0.70
0.31 0.26 0.27 0.27 0.26 0.25 0.25 0.25 0.27 0.26 0.23 0.24 0.24 0.24 0.26 0.25 0.25 0.24 0.22 0.19 0.23 0.20 0.17 0.20 0.22 0.21 0.18 0.20 0.19 0.17 0.17 0.16 0.16 0.16 0.16 0.15 0.14 0.15 0.17 0.20 0.22 0.22 0.22 0.24 0.25 0.26 0.26 0.29 0.31 0.32 0.34 0.35 0.35 0.33 0.34 0.38 0.44 0.46 0.46 0.45 0.46 0.47 0.49 0.50 0.51 0.50 0.43 0.36 0.33 0.37 0.46 0.51 0.55 0.60 0.63 0.65 0.66 0.67 0.67 0.66 0.66 0.69 0.73 0.73 0.72 0.70
0.30 0.26 0.28 0.28 0.27 0.28 0.29 0.29 0.30 0.29 0.27 0.26 0.26 0.26 0.26 0.27 0.26 0.23 0.23 0.24 0.24 0.20 0.18 0.22 0.23 0.21 0.19 0.21 0.19 0.18 0.18 0.17 0.17 0.17 0.18 0.17 0.16 0.15 0.17 0.19 0.20 0.20 0.22 0.24 0.26 0.28 0.28 0.29 0.31 0.33 0.34 0.34 0.32 0.30 0.33 0.41 0.47 0.50 0.50 0.50 0.49 0.50 0.50 0.52 0.52 0.50 0.43 0.35 0.32 0.36 0.45 0.52 0.55 0.60 0.62 0.63 0.65 0.66 0.64 0.63 0.64 0.67 0.70 0.71 0.71 0.71
0.33 0.29 0.30 0.30 0.28 0.29 0.30 0.30 0.30 0.29 0.28 0.28 0.28 0.29 0.30 0.29 0.28 0.28 0.27 0.28 0.27 0.24 0.25 0.24 0.22 0.20 0.21 0.21 0.19 0.18 0.19 0.20 0.19 0.20 0.20 0.18 0.16 0.15 0.15 0.17 0.19 0.19 0.22 0.25 0.27 0.28 0.29 0.30 0.32 0.33 0.34 0.33 0.31 0.29 0.32 0.40 0.48 0.51 0.51 0.51 0.51 0.51 0.52 0.52 0.51 0.49 0.40 0.34 0.33 0.37 0.45 0.52 0.55 0.59 0.61 0.62 0.63 0.62 0.61 0.61 0.62 0.65 0.68 0.69 0.70 0.69
0.32 0.27 0.32 0.31 0.29 0.28 0.29 0.31 0.31 0.31 0.30 0.29 0.31 0.32 0.33 0.33 0.31 0.31 0.30 0.30 0.29 0.27 0.25 0.22 0.22 0.22 0.25 0.23 0.22 0.22 0.23 0.22 0.22 0.22 0.21 0.19 0.17 0.15 0.14 0.15 0.17 0.18 0.21 0.26 0.29 0.29 0.29 0.31 0.33 0.33 0.34 0.33 0.30 0.29 0.30 0.36 0.45 0.50 0.51 0.51 0.51 0.51 0.52 0.52 0.50 0.45 0.38 0.33 0.35 0.38 0.45 0.51 0.55 0.59 0.60 0.62 0.62 0.61 0.62 0.61 0.61 0.63 0.65 0.67 0.68 0.68
0.34 0.29 0.32 0.31 0.27 0.27 0.30 0.30 0.31 0.32 0.32 0.30 0.30 0.32 0.32 0.31 0.29 0.31 0.29 0.29 0.26 0.23 0.22 0.24 0.24 0.24 0.25 0.25 0.25 0.24 0.23 0.22 0.22 0.22 0.22 0.20 0.17 0.16 0.14 0.13 0.15 0.17 0.20 0.26 0.30 0.30 0.29 0.31 0.32 0.33 0.33 0.33 0.31 0.29 0.28 0.31 0.37 0.45 0.49 0.51 0.50 0.50 0.51 0.50 0.47 0.40 0.35 0.34 0.36 0.39 0.45 0.51 0.57 0.58 0.60 0.62 0.63 0.62 0.62 0.61 0.61 0.62 0.64 0.63 0.63 0.63
0.33 0.30 0.28 0.28 0.26 0.26 0.30 0.32 0.31 0.31 0.29 0.26 0.27 0.31 0.32 0.32 0.32 0.32 0.30 0.30 0.28 0.25 0.22 0.22 0.24 0.27 0.26 0.26 0.24 0.22 0.23 0.23 0.24 0.24 0.24 0.24 0.21 0.18 0.16 0.14 0.13 0.16 0.18 0.24 0.31 0.32 0.30 0.31 0.33 0.33 0.34 0.34 0.32 0.29 0.28 0.29 0.31 0.35 0.41 0.45 0.48 0.49 0.48 0.45 0.40 0.36 0.33 0.34 0.37 0.41 0.46 0.52 0.57 0.57 0.59 0.63 0.63 0.62 0.60 0.60 0.61 0.61 0.60 0.58 0.59 0.58
0.34 0.31 0.29 0.30 0.25 0.26 0.30 0.31 0.31 0.28 0.22 0.22 0.32 0.35 0.34 0.32 0.33 0.30 0.28 0.27 0.26 0.25 0.25 0.29 0.29 0.28 0.28 0.30 0.28 0.24 0.24 0.25 0.25 0.28 0.28 0.27 0.25 0.22 0.19 0.17 0.14 0.15 0.18 0.22 0.31 0.35 0.32 0.32 0.34 0.35 0.34 0.34 0.34 0.31 0.29 0.28 0.28 0.30 0.34 0.37 0.40 0.40 0.38 0.36 0.34 0.32 0.32 0.34 0.38 0.43 0.48 0.51 0.56 0.59 0.61 0.63 0.63 0.62 0.61 0.60 0.59 0.58 0.58 0.59 0.59 0.58
0.32 0.32 0.30 0.30 0.27 0.26 0.29 0.30 0.27 0.21 0.21 0.30 0.35 0.34 0.35 0.34 0.31 0.29 0.30 0.32 0.32 0.31 0.31 0.30 0.29 0.29 0.31 0.32 0.32 0.29 0.27 0.27 0.28 0.29 0.30 0.30 0.29 0.26 0.22 0.20 0.17 0.15 0.17 0.20 0.26 0.35 0.35 0.32 0.34 0.35 0.34 0.34 0.34 0.33 0.30 0.27 0.27 0.28 0.29 0.31 0.31 0.32 0.31 0.30 0.30 0.30 0.32 0.34 0.39 0.44 0.47 0.52 0.60 0.62 0.63 0.62 0.62 0.62 0.60 0.58 0.56 0.58 0.60 0.59 0.59 0.58
0.31 0.31 0.31 0.29 0.29 0.28 0.26 0.25 0.20 0.19 0.28 0.32 0.34 0.35 0.37 0.37 0.35 0.33 0.30 0.33 0.34 0.32 0.31 0.29 0.30 0.30 0.31 0.29 0.30 0.30 0.27 0.26 0.29 0.31 0.32 0.32 0.31 0.29 0.26 0.22 0.22 0.20 0.18 0.19 0.22 0.31 0.38 0.34 0.33 0.35 0.34 0.34 0.34 0.34 0.33 0.30 0.28 0.26 0.26 0.28 0.28 0.28 0.29 0.29 0.29 0.30 0.31 0.34 0.40 0.44 0.48 0.59 0.65 0.64 0.63 0.62 0.62 0.62 0.60 0.60 0.59 0.60 0.60 0.59 0.58 0.56
0.34 0.33 0.31 0.27 0.30 0.24 0.25 0.25 0.24 0.29 0.29 0.30 0.32 0.33 0.33 0.31 0.33 0.32 0.27 0.31 0.33 0.31 0.30 0.30 0.30 0.32 0.32 0.29 0.28 0.27 0.26 0.25 0.26 0.30 0.34 0.34 0.33 0.31 0.28 0.26 0.26 0.26 0.23 0.21 0.22 0.26 0.37 0.40 0.35 0.36 0.38 0.35 0.34 0.34 0.34 0.34 0.32 0.29 0.27 0.27 0.27 0.28 0.28 0.29 0.30 0.31 0.33 0.36 0.41 0.44 0.53 0.65 0.67 0.63 0.61 0.62 0.62 0.61 0.57 0.54 0.59 0.63 0.60 0.57 0.55 0.53
0.36 0.32 0.32 0.29 0.26 0.29 0.25 0.23 0.23 0.23 0.20 0.24 0.31 0.33 0.33 0.32 0.33 0.32 0.30 0.29 0.35 0.35 0.34 0.32 0.31 0.32 0.30 0.28 0.27 0.26 0.25 0.22 0.23 0.27 0.33 0.37 0.38 0.36 0.33 0.29 0.28 0.30 0.29 0.25 0.24 0.25 0.29 0.38 0.40 0.37 0.37 0.37 0.35 0.35 0.34 0.35 0.34 0.32 0.30 0.30 0.30 0.30 0.30 0.31 0.31 0.33 0.35 0.38 0.42 0.47 0.59 0.66 0.66 0.63 0.60 0.61 0.61 0.59 0.56 0.58 0.64 0.63 0.60 0.57 0.52 0.46
0.36 0.35 0.33 0.30 0.27 0.26 0.25 0.22 0.21 0.19 0.21 0.28 0.29 0.31 0.31 0.32 0.32 0.32 0.30 0.27 0.36 0.37 0.33 0.32 0.30 0.29 0.28 0.26 0.26 0.26 0.23 0.20 0.21 0.25 0.31 0.37 0.39 0.41 0.40 0.36 0.31 0.30 0.32 0.31 0.27 0.24 0.26 0.30 0.39 0.39 0.38 0.36 0.36 0.36 0.36 0.36 0.34 0.33 0.31 0.31 0.31 0.31 0.30 0.30 0.32 0.35 0.37 0.41 0.46 0.51 0.58 0.63 0.61 0.62 0.60 0.60 0.63 0.62 0.62 0.63 0.64 0.62 0.59 0.52 0.47 0.46
0.31 0.30 0.29 0.26 0.25 0.25 0.24 0.22 0.19 0.23 0.23 0.29 0.31 0.30 0.31 0.32 0.32 0.32 0.24 0.24 0.32 0.32 0.33 0.31 0.26 0.26 0.27 0.27 0.27 0.25 0.22 0.20 0.21 0.23 0.29 0.36 0.39 0.41 0.42 0.41 0.39 0.32 0.30 0.33 0.33 0.30 0.28 0.29 0.31 0.39 0.38 0.36 0.35 0.37 0.36 0.35 0.34 0.33 0.32 0.31 0.31 0.30 0.29 0.31 0.33 0.36 0.40 0.44 0.48 0.52 0.55 0.56 0.55 0.61 0.64 0.62 0.61 0.61 0.61 0.62 0.61 0.56 0.51 0.49 0.48 0.48
0.27 0.27 0.27 0.23 0.24 0.25 0.24 0.22 0.23 0.23 0.29 0.33 0.34 0.32 0.30 0.31 0.31 0.25 0.21 0.28 0.36 0.37 0.38 0.37 0.29 0.26 0.26 0.26 0.26 0.22 0.23 0.23 0.25 0.27 0.30 0.35 0.38 0.39 0.41 0.43 0.43 0.41 0.33 0.31 0.33 0.34 0.31 0.29 0.29 0.29 0.38 0.38 0.38 0.37 0.37 0.35 0.32 0.31 0.32 0.33 0.31 0.30 0.31 0.33 0.35 0.37 0.40 0.45 0.50 0.54 0.57 0.58 0.56 0.56 0.60 0.58 0.60 0.62 0.62 0.59 0.55 0.53 0.53 0.51 0.50 0.49
0.26 0.27 0.26 0.26 0.23 0.22 0.23 0.21 0.20 0.22 0.27 0.33 0.34 0.33 0.30 0.29 0.23 0.22 0.31 0.38 0.39 0.37 0.34 0.34 0.29 0.26 0.26 0.25 0.25 0.24 0.25 0.28 0.30 0.32 0.33 0.35 0.36 0.38 0.40 0.42 0.42 0.42 0.41 0.35 0.33 0.33 0.32 0.31 0.29 0.30 0.30 0.38 0.40 0.40 0.37 0.36 0.33 0.32 0.31 0.31 0.31 0.32 0.34 0.35 0.36 0.38 0.41 0.46 0.50 0.55 0.58 0.59 0.58 0.57 0.57 0.58 0.59 0.56 0.54 0.55 0.56 0.55 0.55 0.53 0.53 0.52
0.25 0.24 0.22 0.22 0.24 0.24 0.23 0.21 0.19 0.16 0.26 0.29 0.31 0.31 0.32 0.26 0.27 0.33 0.36 0.38 0.39 0.37 0.33 0.30 0.28 0.26 0.25 0.24 0.25 0.27 0.29 0.31 0.33 0.34 0.35 0.36 0.36 0.36 0.38 0.41 0.42 0.41 0.41 0.40 0.35 0.33 0.33 0.32 0.30 0.30 0.30 0.30 0.36 0.40 0.41 0.38 0.34 0.32 0.32 0.30 0.32 0.35 0.35 0.36 0.38 0.41 0.43 0.47 0.53 0.56 0.56 0.56 0.55 0.53 0.51 0.50 0.49 0.51 0.54 0.56 0.56 0.56 0.56 0.54 0.53 0.53
0.30 0.25 0.23 0.23 0.26 0.21 0.21 0.19 0.17 0.21 0.29 0.31 0.29 0.26 0.30 0.31 0.34 0.36 0.35 0.33 0.35 0.36 0.35 0.34 0.33 0.31 0.30 0.29 0.30 0.32 0.34 0.36 0.38 0.38 0.36 0.36 0.35 0.36 0.38 0.40 0.42 0.42 0.42 0.42 0.40 0.36 0.34 0.33 0.34 0.32 0.31 0.31 0.31 0.34 0.39 0.41 0.39 0.36 0.33 0.31 0.34 0.35 0.37 0.40 0.41 0.42 0.43 0.46 0.48 0.49 0.50 0.51 0.52 0.52 0.53 0.54 0.55 0.56 0.57 0.58 0.57 0.56 0.55 0.54 0.54 0.53
0.28 0.26 0.27 0.24 0.28 0.26 0.22 0.22 0.27 0.30 0.31 0.33 0.33 0.32 0.33 0.34 0.36 0.36 0.36 0.37 0.37 0.38 0.39 0.38 0.37 0.38 0.38 0.38 0.38 0.38 0.37 0.38 0.39 0.40 0.36 0.34 0.34 0.34 0.36 0.38 0.40 0.41 0.41 0.42 0.42 0.41 0.37 0.33 0.33 0.35 0.34 0.32 0.30 0.31 0.34 0.36 0.38 0.42 0.39 0.37 0.36 0.35 0.35 0.36 0.38 0.39 0.41 0.44 0.47 0.51 0.54 0.56 0.57 0.57 0.57 0.57 0.58 0.58 0.59 0.59 0.58 0.55 0.54 0.54 0.54 0.53
0.32 0.33 0.34 0.31 0.28 0.30 0.31 0.30 0.31 0.31 0.31 0.32 0.34 0.35 0.34 0.34 0.36 0.37 0.36 0.36 0.37 0.38 0.38 0.38 0.39 0.39 0.40 0.40 0.39 0.40 0.40 0.40 0.40 0.41 0.41 0.39 0.36 0.35 0.36 0.37 0.39 0.40 0.41 0.42 0.43 0.44 0.41 0.38 0.37 0.36 0.36 0.34 0.32 0.30 0.31 0.34 0.35 0.33 0.40 0.46 0.44 0.41 0.39 0.38 0.38 0.38 0.40 0.42 0.46 0.50 0.55 0.56 0.58 0.59 0.60 0.60 0.61 0.61 0.62 0.62 0.60 0.58 0.58 0.57 0.57 0.56
0.32 0.32 0.31 0.28 0.30 0.28 0.21 0.27 0.29 0.29 0.33 0.33 0.33 0.35 0.36 0.36 0.36 0.36 0.36 0.37 0.38 0.40 0.40 0.41 0.41 0.41 0.41 0.41 0.40 0.39 0.40 0.41 0.40 0.41 0.42 0.42 0.42 0.41 0.38 0.37 0.39 0.41 0.42 0.42 0.43 0.45 0.45 0.42 0.38 0.37 0.36 0.36 0.35 0.32 0.30 0.30 0.32 0.35 0.35 0.39 0.47 0.49 0.48 0.45 0.44 0.44 0.45 0.47 0.49 0.51 0.54 0.55 0.58 0.60 0.62 0.62 0.62 0.62 0.62 0.62 0.61 0.60 0.59 0.58 0.56 0.56
0.28 0.35 0.30 0.30 0.29 0.26 0.23 0.27 0.30 0.33 0.34 0.34 0.34 0.33 0.33 0.35 0.36 0.37 0.37 0.38 0.39 0.40 0.41 0.42 0.43 0.42 0.43 0.41 0.42 0.41 0.40 0.41 0.41 0.41 0.42 0.42 0.42 0.42 0.42 0.42 0.42 0.43 0.44 0.45 0.45 0.45 0.46 0.45 0.42 0.40 0.39 0.37 0.37 0.36 0.33 0.30 0.29 0.31 0.35 0.36 0.35 0.40 0.47 0.49 0.49 0.50 0.51 0.51 0.51 0.50 0.50 0.50 0.53 0.55 0.58 0.60 0.60 0.59 0.59 0.59 0.58 0.57 0.56 0.56 0.56 0.55
0.33 0.35 0.28 0.29 0.27 0.28 0.30 0.30 0.30 0.33 0.33 0.33 0.35 0.35 0.36 0.37 0.37 0.38 0.39 0.39 0.40 0.40 0.41 0.43 0.44 0.44 0.44 0.44 0.44 0.43 0.42 0.43 0.43 0.43 0.42 0.42 0.42 0.43 0.43 0.43 0.43 0.43 0.44 0.44 0.45 0.47 0.47 0.47 0.45 0.44 0.43 0.41 0.39 0.38 0.36 0.34 0.31 0.30 0.30 0.33 0.36 0.36 0.34 0.37 0.43 0.47 0.48 0.49 0.50 0.50 0.50 0.49 0.49 0.49 0.50 0.53 0.56 0.58 0.59 0.60 0.59 0.57 0.57 0.57 0.57 0.56
0.33 0.28 0.30 0.29 0.25 0.23 0.22 0.23 0.31 0.27 0.24 0.29 0.33 0.35 0.37 0.39 0.39 0.39 0.40 0.40 0.41 0.41 0.43 0.43 0.44 0.46 0.46 0.46 0.46 0.45 0.43 0.44 0.44 0.44 0.43 0.44 0.44 0.44 0.44 0.44 0.45 0.44 0.44 0.45 0.46 0.48 0.48 0.47 0.47 0.47 0.46 0.46 0.46 0.42 0.38 0.37 0.35 0.33 0.32 0.30 0.30 0.33 0.35 0.34 0.33 0.34 0.38 0.44 0.46 0.46 0.46 0.46 0.46 0.46 0.46 0.47 0.48 0.51 0.54 0.57 0.58 0.58 0.56 0.56 0.57 0.57
0.29 0.28 0.29 0.26 0.24 0.21 0.25 0.31 0.35 0.33 0.30 0.32 0.35 0.37 0.38 0.39 0.39 0.39 0.40 0.41 0.42 0.43 0.44 0.44 0.43 0.44 0.45 0.46 0.48 0.46 0.45 0.45 0.45 0.45 0.44 0.44 0.44 0.45 0.45 0.45 0.45 0.45 0.45 0.46 0.46 0.47 0.47 0.47 0.47 0.48 0.49 0.49 0.49 0.48 0.44 0.40 0.38 0.37 0.36 0.34 0.32 0.30 0.29 0.31 0.33 0.34 0.33 0.32 0.32 0.36 0.39 0.39 0.38 0.39 0.39 0.41 0.42 0.44 0.46 0.48 0.51 0.53 0.53 0.54 0.54 0.56
Wind_Speed
17 17 17 18 18 18 18 19 19 19 20 21 21 21 22 23 24 23 24 22 23 24 22 21 22 22 20 20 23 26 28 30 33 33 34 35 37 39 40 41 41 42 42 41 41 41 42 43 43 44 44 43 43 42 41 38 37 39 40 40 42 42 41 42 44 44 44 44 44 44 43 42 41 40 39 39 38 37 36 36 35 34 34 33 33 32
17 17 17 17 17 17 18 18 18 19 19 20 20 21 22 22 23 24 23 22 22 23 23 23 24 23 20 19 20 24 26 29 32 33 34 35 37 38 40 42 42 42 41 41 42 42 42 42 43 44 44 44 44 43 43 41 39 38 39 39 39 40 41 42 43 43 43 43 43 43 43 42 41 40 40 39 38 38 37 36 36 36 35 34 34 33
17 17 16 16 16 17 17 17 18 18 19 19 20 21 21 21 23 23 22 22 22 23 24 25 26 24 21 19 18 19 22 27 30 32 34 34 35 38 40 41 42 42 42 42 43 43 43 43 43 43 44 44 45 44 44 43 41 39 39 40 38 38 40 42 43 43 43 43 43 42 41 41 40 40 40 39 38 38 37 37 37 36 36 35 35 34
17 16 14 15 16 16 17 17 17 18 19 19 19 20 21 21 22 22 21 23 24 23 24 25 26 23 19 17 14 12 14 20 26 30 32 34 35 36 38 39 40 42 42 43 43 43 43 43 43 43 43 44 44 45 45 44 44 42 41 41 40 39 40 42 43 44 44 44 43 41 41 41 40 39 39 39 38 38 38 38 38 37 36 36 35 35
17 15 14 15 16 16 17 16 17 18 19 19 19 19 21 21 21 21 22 25 25 22 21 25 25 21 18 17 15 11 9 12 17 24 29 32 34 35 37 39 41 42 42 42 43 43 44 44 44 44 44 44 44 45 46 46 45 44 43 42 42 41 41 42 42 43 45 44 44 42 42 41 40 39 39 39 39 39 39 39 38 37 36 35 35 34
17 15 14 15 15 16 16 17 16 17 19 19 18 18 20 21 20 21 23 25 24 20 20 25 23 19 19 19 16 13 11 11 11 16 24 29 31 33 35 37 40 41 42 42 43 43 44 45 45 45 45 44 44 44 45 46 46 46 44 43 43 43 42 43 43 43 44 46 45 44 44 44 42 41 41 41 40 40 39 39 38 38 37 36 35 34
16 15 15 15 15 15 16 17 16 16 18 19 18 18 19 20 20 21 22 22 21 20 21 22 18 18 22 22 17 15 14 12 11 10 15 23 27 30 32 35 38 40 42 43 43 43 44 44 45 46 46 45 45 45 45 45 46 46 46 44 44 43 42 45 45 43 43 45 47 46 45 45 44 43 42 41 41 40 39 39 39 38 38 36 36 35
15 14 15 15 15 16 16 17 15 14 17 17 17 18 19 20 20 21 21 20 19 21 22 19 16 17 20 20 17 15 15 13 11 11 9 11 20 26 30 32 35 38 40 42 43 44 44 45 45 46 46 46 46 46 45 46 46 46 47 46 45 44 43 44 46 44 42 43 46 47 46 44 43 43 43 41 41 41 40 40 39 39 38 37 36 36
16 15 15 15 15 16 16 16 14 13 16 17 16 18 19 20 20 20 20 19 19 21 19 16 16 16 18 19 17 15 15 14 12 11 9 7 10 18 25 29 32 35 37 40 42 43 44 44 46 46 46 46 47 46 46 47 47 47 47 47 47 46 44 43 45 45 42 42 44 46 46 45 43 42 43 42 42 41 41 40 40 39 39 38 37 36
17 16 16 16 16 16 15 15 15 14 15 16 16 17 18 18 19 18 19 18 18 17 16 15 15 16 18 18 16 16 15 14 13 11 10 9 9 11 17 23 28 31 34 37 40 41 42 43 44 45 46 47 47 47 47 47 47 47 48 48 48 48 46 44 45 45 42 40 42 45 46 46 44 42 42 42 42 42 42 41 40 40 39 38 37 36
17 17 17 17 16 16 15 14 15 15 15 16 16 18 17 17 17 16 16 16 15 14 15 15 15 15 18 18 16 16 16 15 15 13 11 11 10 10 12 16 21 26 30 33 37 39 41 42 43 44 46 47 47 48 48 48 49 48 48 49 49 49 48 46 45 46 44 42 41 44 46 46 46 45 43 42 42 42 43 42 42 41 40 39 38 37
17 17 17 16 16 15 14 14 14 14 15 16 16 17 17 16 15 14 13 14 14 14 14 15 15 14 14 15 17 17 17 16 15 14 13 11 11 11 12 13 16 20 24 28 32 36 39 41 43 44 45 46 47 48 49 49 50 50 49 50 51 51 50 48 47 47 46 44 42 42 44 45 47 47 45 44 43 43 42 42 42 41 40 40 39 38
16 17 16 16 16 16 15 14 14 14 14 14 15 15 16 15 14 14 13 13 14 14 14 15 15 14 13 16 18 19 18 16 15 14 12 11 10 11 11 11 12 14 18 22 27 31 35 39 42 44 45 46 47 49 50 50 50 51 51 51 52 52 52 50 50 49 47 45 44 43 42 44 45 45 44 44 43 42 41 41 42 41 40 39 39 38
16 16 15 16 16 15 15 14 14 14 13 13 14 14 14 14 15 15 14 14 14 14 14 14 15 14 15 17 17 16 15 14 14 13 11 10 10 10 10 10 10 11 13 17 21 25 29 34 38 42 45 47 48 49 50 51 52 52 52 52 53 53 53 53 52 51 49 47 46 45 43 43 45 45 44 44 43 42 41 42 43 42 41 39 38 38
17 16 14 15 14 13 14 14 14 13 13 13 13 13 13 13 14 15 15 15 16 17 15 13 13 13 15 17 15 14 15 14 13 12 11 10 10 10 11 11 11 12 12 14 17 21 25 29 33 38 42 45 48 49 50 52 53 53 53 54 54 54 54 55 54 53 52 49 47 46 45 43 45 47 46 44 43 42 41 41 42 42 41 40 38 38
17 17 14 14 14 13 14 14 14 13 13 13 12 12 12 12 13 14 14 14 16 17 15 12 12 15 17 18 15 14 16 14 12 12 11 11 11 11 12 12 13 13 13 14 16 19 22 26 30 34 38 42 46 48 50 52 53 54 55 55 56 56 55 56 56 55 54 52 49 48 48 45 44 45 46 45 43 42 40 40 40 40 39 38 37 36
16 16 14 14 15 15 15 14 14 14 13 12 12 12 12 13 13 13 14 13 14 15 14 12 15 18 18 16 13 13 14 12 12 12 11 12 12 12 12 13 14 15 15 16 16 18 21 24 28 32 36 40 43 46 49 51 53 55 56 56 57 57 57 56 56 56 55 54 52 50 49 48 46 45 45 46 45 42 41 40 38 37 37 36 35 35
17 16 15 15 15 15 16 15 14 15 14 13 13 12 11 12 13 13 13 13 13 14 14 12 16 18 16 13 12 12 13 12 11 11 12 13 13 14 14 16 16 16 17 17 18 19 21 24 27 31 34 38 42 45 48 51 53 54 56 57 58 59 59 58 57 57 56 55 54 53 51 50 49 46 45 45 45 42 41 41 38 37 37 35 34 34
18 17 16 16 16 15 15 16 14 14 14 15 14 13 12 12 11 11 13 14 14 15 15 13 15 17 13 12 13 13 13 12 11 11 13 14 15 16 17 18 18 18 19 19 20 21 23 26 28 30 32 36 40 44 47 50 53 55 56 57 59 60 61 60 58 58 57 57 56 55 54 52 51 49 46 46 45 43 42 41 39 38 38 36 35 34
18 18 16 16 16 14 15 17 16 14 14 14 14 13 14 13 12 12 12 13 13 15 16 15 15 15 13 11 12 13 13 13 13 13 15 16 17 19 19 20 20 20 20 21 22 24 26 27 28 30 32 35 38 42 46 49 52 55 57 58 59 60 62 62 61 59 59 59 58 56 55 54 53 51 49 47 46 45 43 41 39 38 38 38 37 35
19 19 17 16 16 15 16 16 16 14 13 13 14 14 14 13 12 13 13 13 13 14 16 16 16 17 15 11 11 13 14 14 15 16 17 18 20 20 21 21 22 22 22 23 24 26 27 28 29 30 32 34 37 41 44 48 51 54 57 59 61 62 63 63 63 62 60 60 59 59 57 55 54 53 52 50 47 45 45 43 41 39 38 38 37 36
20 20 18 17 17 18 17 16 16 16 14 14 15 14 14 13 11 12 13 13 13 13 14 15 18 19 14 10 10 13 14 15 16 18 19 20 20 20 21 22 23 24 24 25 26 27 27 27 28 30 32 34 37 40 43 46 50 53 56 58 61 63 64 64 63 63 62 61 61 61 59 56 55 54 53 52 49 46 45 44 43 41 40 39 38 37
20 20 20 19 19 19 18 17 17 17 16 15 16 15 14 13 12 12 13 12 12 13 14 15 17 17 11 9 11 13 14 17 18 19 19 19 20 21 22 24 25 25 26 26 26 27 27 28 28 29 31 33 36 39 42 45 48 51 54 56 59 63 65 65 63 63 63 63 62 62 61 58 56 55 53 52 51 49 46 44 43 43 42 40 39 38
20 20 20 20 19 18 17 17 18 18 17 17 17 16 15 15 15 14 13 13 12 13 13 13 15 15 11 11 13 15 16 18 19 18 18 18 20 21 23 24 25 26 26 26 26 27 27 28 28 29 29 30 33 36 39 42 45 48 51 54 57 61 64 65 64 63 63 64 63 62 62 60 58 57 55 53 51 51 49 46 44 42 41 40 39 38
21 21 20 18 18 17 16 16 17 17 18 18 18 17 17 17 16 15 14 14 15 14 13 13 14 16 14 14 16 17 18 19 19 19 19 19 20 22 23 24 25 26 26 27 27 27 27 28 28 28 28 28 29 31 34 38 41 45 49 53 56 58 61 64 63 63 63 64 64 63 62 61 59 59 58 55 52 51 49 47 44 42 40 39 39 38
21 21 20 19 19 18 17 15 15 16 16 17 18 18 18 18 17 16 15 15 16 14 13 14 16 20 21 20 21 21 20 20 20 20 20 19 20 22 23 24 25 26 26 27 28 27 27 27 28 27 27 26 25 25 28 32 36 41 45 50 53 55 59 61 62 62 63 63 64 64 62 61 60 59 58 57 54 52 49 48 45 43 41 40 39 39
22 23 23 23 23 22 19 17 17 16 16 17 18 19 19 19 19 18 16 17 17 15 16 20 21 25 27 24 23 21 19 19 19 19 20 20 20 22 23 24 25 26 27 27 27 27 26 26 26 26 25 23 21 21 23 26 30 35 39 45 49 52 56 58 59 60 62 62 63 63 62 61 60 58 58 57 55 53 50 49 47 45 43 41 40 40
23 24 25 26 27 26 23 21 20 20 21 21 21 21 20 20 20 21 20 20 18 15 19 21 21 24 27 25 23 21 19 19 19 19 20 21 22 23 23 24 26 27 27 27 27 27 26 25 25 24 23 21 19 17 18 20 24 28 33 39 44 47 52 55 56 57 59 60 62 62 62 61 59 57 56 56 55 53 51 50 48 47 45 42 41 41
24 25 24 25 27 27 26 24 23 23 24 24 24 24 23 22 23 24 25 25 21 20 23 23 21 24 27 24 22 20 20 20 19 20 21 22 23 23 23 23 25 27 27 27 27 26 25 24 23 22 21 19 16 14 14 15 18 22 27 33 38 42 47 50 52 54 56 58 60 61 61 60 58 57 56 55 54 53 51 50 48 48 46 44 41 40
25 25 24 25 27 27 27 26 25 26 26 26 27 27 25 25 26 27 27 27 26 28 29 27 27 28 26 22 21 21 20 20 20 20 21 22 21 21 22 23 24 26 27 27 26 25 24 23 22 21 20 18 15 12 11 12 14 17 21 27 32 37 41 45 48 50 52 54 56 58 59 59 58 57 56 55 54 52 50 48 47 47 46 44 43 41
25 25 23 23 26 26 26 26 26 26 27 28 28 27 27 27 29 29 29 28 27 29 29 28 28 27 23 20 21 21 20 19 19 19 19 19 20 20 21 22 24 25 27 26 26 25 23 22 21 20 18 17 14 11 9 9 11 14 17 22 27 32 36 40 43 46 48 50 53 55 57 58 57 56 55 54 53 51 49 47 47 46 45 44 43 42
25 24 22 22 25 26 24 24 25 26 27 29 29 28 28 28 27 27 26 25 25 27 26 25 25 24 20 17 17 17 17 16 17 18 17 18 19 19 20 22 24 25 25 26 25 23 22 20 20 19 18 16 14 11 8 6 9 12 15 19 24 28 32 35 38 41 43 46 49 52 55 56 56 55 55 53 52 51 48 47 46 45 44 43 42 41
25 24 23 23 25 24 22 22 23 24 26 26 25 25 26 26 25 25 24 24 24 23 23 22 22 21 18 16 16 17 16 15 15 16 16 17 19 20 21 22 23 24 24 24 23 22 20 19 18 18 17 15 13 11 8 5 7 11 14 18 21 25 28 32 34 37 40 43 46 49 52 54 54 54 54 53 52 50 48 47 46 45 44 43 41 40
24 24 24 23 23 23 22 22 23 25 26 23 19 20 22 22 22 23 23 23 23 23 24 24 23 21 19 17 17 17 16 16 16 17 17 18 18 20 22 22 21 21 22 22 21 21 20 18 17 17 16 14 13 11 9 5 4 9 14 17 20 23 26 28 31 34 36 39 42 45 49 51 52 52 52 52 51 49 47 47 46 45 44 42 41 40
24 24 24 24 24 23 22 22 23 25 25 21 18 18 18 19 21 23 25 26 25 25 26 26 23 22 21 19 17 16 16 17 17 19 20 20 19 19 20 20 19 19 20 20 20 20 18 17 16 15 14 13 12 10 8 5 1 5 11 16 19 22 25 27 29 31 33 36 39 42 46 49 49 49 50 50 50 48 47 46 45 44 43 42 41 40
25 25 24 24 24 24 22 22 25 25 25 24 24 22 21 21 22 24 27 27 24 24 24 24 24 23 22 20 18 15 14 15 17 19 19 19 17 16 16 17 17 18 18 18 18 18 17 16 14 14 13 12 10 9 8 5 3 2 6 11 16 20 22 25 27 30 32 34 37 40 44 45 45 46 47 48 48 47 46 45 44 44 43 42 40 39
26 25 25 25 25 24 24 25 28 29 29 28 27 24 22 22 21 22 24 23 20 21 22 22 23 23 21 20 17 13 11 13 14 16 16 14 13 13 14 15 16 16 17 17 17 17 17 15 13 12 12 10 9 7 7 5 3 3 4 7 11 16 20 22 25 28 30 32 34 39 42 42 42 43 45 46 46 46 46 45 44 43 42 41 39 38
28 27 26 26 26 25 25 26 26 28 27 23 21 20 20 20 19 19 22 21 19 19 20 21 22 22 20 18 15 10 10 12 13 13 12 11 12 12 13 14 15 15 16 16 15 15 15 14 13 11 10 9 8 6 5 3 1 2 4 6 9 13 16 20 23 26 29 31 33 37 40 40 40 42 43 43 44 44 44 44 43 42 41 40 38 38
28 28 27 28 27 25 25 24 24 26 26 21 19 20 20 20 19 19 21 22 19 18 18 18 20 19 17 15 12 10 11 12 13 12 12 11 11 12 13 14 14 14 15 14 14 14 14 13 12 10 9 8 7 5 3 2 1 2 4 6 8 11 14 18 21 25 28 30 32 35 37 39 40 39 40 41 42 42 42 43 42 41 40 39 38 37
30 29 29 31 30 28 27 26 26 28 27 23 21 21 20 20 19 19 21 21 17 17 18 18 18 17 15 13 12 12 13 13 13 13 13 13 13 13 13 14 14 13 14 13 13 13 13 12 11 10 8 6 5 4 3 1 1 2 4 6 9 11 14 17 20 23 26 28 30 32 34 36 38 38 38 39 40 40 40 41 40 40 39 38 37 37
31 31 31 32 32 31 30 29 29 30 29 27 24 22 21 20 20 22 22 20 18 19 20 20 19 17 15 14 13 14 15 15 14 14 15 15 15 15 14 14 14 13 13 13 13 12 11 11 10 9 8 6 4 3 2 1 1 3 4 7 9 12 15 17 19 22 24 26 28 30 31 32 34 36 36 38 38 38 39 39 39 39 38 38 37 36
30 30 31 32 31 31 30 29 29 29 27 24 22 23 22 21 21 22 21 18 18 18 18 18 19 18 17 17 16 16 17 16 16 17 17 17 17 17 16 15 15 14 13 12 12 12 11 10 9 8 7 6 3 1 1 1 2 3 5 7 10 13 15 17 19 21 23 25 27 28 28 30 32 33 34 35 36 36 37 38 38 38 38 37 37 36
31 30 31 32 31 27 26 27 26 24 19 15 16 19 22 23 21 19 18 17 18 18 17 18 18 17 18 18 18 19 18 18 19 20 19 19 19 19 18 17 15 14 13 12 12 12 11 10 9 8 7 5 3 2 1 3 4 5 6 8 10 12 14 17 19 21 23 24 25 25 26 28 29 30 32 33 34 35 36 36 37 37 37 37 36 36
35 34 32 32 31 28 28 29 27 23 19 17 17 18 22 27 25 21 19 20 20 20 20 20 19 19 20 20 20 21 21 21 22 23 22 21 21 21 19 18 16 16 15 14 13 12 12 11 10 8 7 5 4 3 3 4 5 6 7 9 10 11 14 16 18 20 21 23 23 24 25 26 27 29 30 31 32 33 34 35 35 35 36 36 36 35
39 37 34 33 34 34 34 33 30 26 24 24 25 23 24 29 31 27 24 24 23 23 23 23 23 23 24 24 24 24 23 23 24 24 24 24 23 22 21 19 18 18 17 16 15 14 13 12 11 10 8 7 6 5 5 5 6 6 8 9 10 12 14 15 17 18 20 21 22 24 25 26 27 28 29 30 31 32 33 34 34 34 35 35 35 36
39 37 35 34 35 36 37 37 34 30 28 28 30 30 28 29 31 30 30 30 28 27 27 27 28 28 27 27 27 26 26 27 26 26 26 25 25 25 23 22 21 20 19 18 17 15 15 14 13 12 11 10 9 8 7 7 8 8 9 10 11 12 14 16 17 18 20 21 22 23 24 25 26 27 28 29 30 31 32 33 33 34 34 35 36 36
39 38 37 36 35 35 36 35 34 33 32 30 31 32 31 30 30 29 30 31 30 29 29 30 30 30 30 29 29 29 29 29 28 28 27 27 27 27 26 25 24 22 21 20 19 17 16 15 15 14 13 12 12 11 10 10 10 10 10 11 12 14 15 16 18 19 20 21 22 23 24 25 26 27 27 28 29 30 31 32 33 33 34 35 35 35
38 38 38 39 39 37 36 33 32 32 32 31 31 31 30 30 30 30 30 31 31 31 30 30 31 31 31 31 31 31 31 30 29 29 28 28 28 28 27 27 26 24 22 21 20 20 18 17 17 16 15 15 15 14 14 14 13 13 13 13 14 15 16 18 19 20 21 22 23 24 24 25 26 27 27 28 29 30 30 31 32 33 33 34 35 35
35 37 39 39 39 40 39 35 32 31 31 30 30 30 29 29 30 30 30 31 30 31 32 32 32 31 31 31 31 30 31 30 29 29 28 28 28 28 27 27 26 25 24 22 22 21 21 19 19 18 18 17 17 17 17 17 17 16 16 16 16 17 18 19 20 21 22 23 24 24 25 25 26 27 28 29 30 30 31 31 32 33 33 34 34 35
38 40 40 38 39 41 39 33 29 30 30 28 27 29 30 30 30 30 30 30 30 31 32 32 32 31 30 30 30 30 30 30 29 28 28 28 27 27 28 28 27 26 26 25 23 22 22 22 21 20 20 20 19 19 20 20 20 19 19 18 18 19 20 20 21 22 23 24 25 26 26 27 27 28 28 29 29 30 31 32 33 33 33 34 34 35
42 42 40 40 41 41 37 32 30 32 32 28 27 29 30 30 31 31 30 30 31 32 31 31 32 31 30 29 28 29 29 29 28 28 28 28 28 28 28 29 29 28 28 28 26 24 23 24 24 23 23 22 22 21 22 22 22 22 22 21 21 21 22 22 22 22 23 24 25 27 27 28 28 29 29 29 30 30 30 31 32 33 34 34 34 35
Wind_Direction
319 319 322 327 330 333 335 337 340 341 340 339 341 342 342 340 341 343 344 350 354 346 340 335 327 318 306 287 270 262 254 248 245 242 240 236 234 234 235 235 235 234 233 233 232 232 232 232 231 231 230 229 230 230 229 230 230 228 227 227 228 229 229 224 221 222 221 221 221 221 221 222 223 224 224 224 223 223 222 222 221 222 222 223 223 224
314 315 319 324 328 331 333 334 336 338 337 337 338 339 341 340 340 341 343 349 354 349 343 338 329 323 317 304 282 266 256 250 246 243 241 238 235 233 234 235 235 234 234 233 233 232 232 231 231 232 232 231 230 230 230 230 230 230 229 228 228 227 226 223 221 222 222 221 221 221 222 222 222 223 223 223 223 223 222 222 222 222 223 223 224 225
310 312 317 321 325 329 331 332 332 333 334 335 337 338 339 343 343 341 345 350 351 348 343 339 336 331 325 317 300 277 261 252 247 244 242 240 236 233 233 234 234 234 234 233 233 233 232 232 231 231 232 232 231 231 230 230 230 230 231 229 228 226 225 224 223 223 223 222 222 221 221 221 222 222 223 223 222 222 222 222 223 223 223 224 225 225
308 311 315 319 322 323 327 330 330 330 332 332 335 336 336 342 345 343 346 347 344 344 342 340 338 337 338 335 326 307 280 261 251 247 244 242 239 236 234 234 234 234 234 234 234 233 232 232 231 231 232 232 232 232 231 231 231 231 231 231 229 227 225 224 224 224 223 223 223 221 221 221 222 222 222 222 222 222 222 223 223 224 224 225 226 226
305 311 315 316 316 317 321 325 327 328 330 330 330 332 333 339 342 339 342 343 341 343 347 346 344 348 357 355 346 343 323 285 261 251 246 243 240 238 236 235 234 234 235 235 235 234 233 232 232 232 232 232 232 232 232 232 232 231 231 231 230 228 225 224 223 223 223 223 222 222 222 221 222 221 221 221 222 222 223 223 224 224 224 225 226 226
301 307 308 309 312 314 317 321 324 326 328 329 329 330 331 337 340 338 340 342 343 349 356 356 354 355 0 355 349 351 342 318 292 265 251 245 241 238 236 236 236 235 235 235 235 235 234 234 233 233 233 233 233 233 233 233 232 232 231 231 230 227 226 224 223 223 223 223 222 222 223 223 223 222 221 222 222 222 223 223 223 223 224 225 225 226
299 302 303 304 307 309 312 316 321 324 325 328 333 334 334 336 338 338 340 342 345 346 348 352 352 349 351 353 355 356 346 332 325 301 266 248 241 239 237 237 237 236 236 235 235 235 235 234 234 234 233 233 233 234 234 233 232 232 231 231 230 228 227 225 223 224 225 224 223 223 224 225 224 223 223 222 222 222 223 223 223 223 223 225 225 226
294 295 298 301 302 305 309 313 317 320 321 327 335 335 334 334 334 336 339 339 341 341 341 346 347 343 345 353 3 1 351 345 342 337 314 261 242 239 238 238 237 237 236 236 235 235 235 235 234 234 234 233 234 234 234 233 232 232 231 231 229 229 229 227 225 225 225 224 223 223 223 224 224 223 223 222 222 222 223 223 223 223 224 225 226 227
293 290 291 294 297 301 306 314 316 313 317 328 334 331 332 333 333 336 336 334 339 342 344 350 351 346 342 349 5 8 356 350 342 336 334 311 263 246 242 241 240 239 238 237 237 236 236 236 235 235 235 235 234 234 234 233 233 232 231 231 230 229 229 228 224 224 225 223 223 222 221 223 224 224 223 223 223 223 223 223 223 223 224 225 226 227
292 291 293 292 294 299 306 314 314 309 316 326 330 328 330 332 334 335 334 334 339 341 344 351 352 349 343 346 2 6 357 349 341 333 328 322 302 269 253 248 245 243 241 239 238 238 237 237 236 236 236 236 235 235 234 234 233 233 232 231 231 230 230 228 225 224 224 223 224 223 222 223 224 223 223 223 223 222 222 223 223 224 224 225 227 227
288 290 292 291 293 301 306 310 312 313 319 323 324 325 326 329 332 335 334 336 339 341 347 352 351 349 346 346 353 355 354 351 343 335 326 315 305 291 273 259 252 247 244 242 240 239 239 238 237 237 236 236 236 235 235 234 234 233 232 231 231 230 230 229 227 225 225 226 226 225 223 222 222 222 222 222 222 222 222 222 223 223 224 225 227 228
284 283 285 289 292 297 298 302 308 314 317 318 322 324 325 328 332 333 337 340 338 342 351 351 348 346 340 341 347 348 348 346 341 336 329 319 307 297 288 276 264 254 248 245 243 241 240 239 238 237 237 236 236 235 234 234 234 233 233 231 231 230 229 229 228 227 228 228 226 224 223 222 222 222 222 222 222 222 222 223 223 223 223 224 226 228
280 280 284 289 288 287 288 294 301 307 311 313 317 322 324 329 333 332 336 338 334 339 349 348 346 341 325 327 337 338 337 337 337 339 337 333 320 306 299 291 279 264 255 249 246 244 242 241 240 239 238 237 236 235 234 234 233 233 233 232 231 230 229 229 229 228 228 228 227 225 224 223 222 221 221 221 222 222 222 223 222 222 222 224 226 227
279 282 282 282 284 280 277 287 297 301 305 309 314 318 321 328 331 330 332 336 333 336 340 340 341 336 327 331 335 333 337 340 341 342 342 342 334 319 313 307 297 282 268 258 252 249 246 244 242 240 239 239 238 237 236 235 234 233 233 232 232 231 229 229 229 229 228 227 227 226 225 223 221 221 222 222 222 222 223 223 222 221 221 223 225 225
276 281 277 274 281 276 271 285 298 302 304 307 313 316 316 322 324 324 329 332 331 333 333 335 338 334 334 341 343 341 345 344 341 342 342 342 339 331 325 316 308 298 285 273 263 256 252 248 245 243 241 240 239 238 237 236 235 234 234 233 232 232 230 230 230 229 228 228 227 226 226 225 222 222 223 224 223 222 223 223 221 221 222 224 225 226
273 277 276 276 280 274 273 285 293 298 302 306 311 310 311 316 316 318 324 326 328 330 329 331 331 326 327 331 334 339 344 342 340 342 343 342 340 337 331 321 313 305 295 286 275 266 259 253 250 248 245 242 241 239 238 237 236 235 235 234 233 232 231 231 230 229 228 228 228 227 226 225 223 222 223 223 223 223 222 222 221 222 224 225 226 227
270 275 274 274 274 273 279 286 288 292 298 300 302 304 310 315 313 314 319 322 325 324 326 330 326 325 330 333 336 340 341 341 340 340 341 340 338 336 331 323 316 308 300 293 284 276 269 262 257 253 249 246 243 240 239 238 237 236 235 234 234 233 232 231 230 229 228 227 228 227 226 225 223 222 221 220 221 222 221 221 222 223 224 225 225 226
266 271 273 272 271 273 280 284 286 291 292 293 296 301 310 312 312 314 317 321 321 318 322 326 322 324 332 338 342 342 339 340 342 340 337 334 331 329 325 322 317 310 303 297 289 282 278 273 266 259 253 249 245 242 240 239 238 237 235 234 233 233 232 231 230 229 228 226 226 225 224 224 223 222 222 220 220 221 221 221 223 223 223 223 223 223
264 267 270 272 271 271 275 277 280 283 285 291 295 297 303 306 308 310 312 317 320 319 321 323 324 322 319 325 333 333 332 335 336 334 331 327 325 324 323 321 318 313 306 299 292 287 285 280 273 265 259 253 248 245 242 240 239 237 236 235 233 233 232 231 230 229 227 226 225 224 223 223 223 223 223 222 220 220 220 221 222 223 222 222 220 219
261 264 267 270 269 268 269 271 273 275 279 286 288 289 296 300 303 304 308 314 316 317 319 323 330 326 317 322 326 321 323 325 325 326 326 325 325 324 323 320 317 314 309 302 295 293 291 286 278 271 264 257 252 248 245 242 239 238 237 235 234 233 232 231 229 228 227 226 225 223 222 223 223 223 223 223 221 221 221 221 222 223 223 222 220 218
259 261 264 265 264 263 265 268 269 270 272 275 275 280 286 290 297 300 300 302 306 313 315 318 322 319 317 323 317 313 319 319 319 322 322 323 323 321 319 317 315 313 310 305 300 298 296 291 285 277 270 263 257 252 248 244 241 238 237 235 234 233 232 231 229 228 227 226 225 223 222 222 222 222 222 223 223 223 223 223 223 224 223 222 220 219
256 258 259 259 259 261 265 270 272 271 270 271 273 276 280 281 288 296 298 295 296 302 307 313 317 314 315 327 323 318 322 321 319 321 321 321 319 318 316 314 313 313 311 308 306 304 301 296 291 284 276 269 262 256 251 246 242 239 236 234 233 232 231 230 229 227 226 225 224 223 222 221 221 221 221 222 223 224 224 225 225 225 225 224 222 222
257 258 258 259 260 263 268 272 274 274 272 273 275 275 276 278 277 286 296 296 293 296 301 308 312 310 316 333 329 325 324 321 322 322 320 318 315 316 315 313 312 312 312 312 311 309 306 302 297 291 283 274 266 260 254 248 243 239 236 233 232 231 230 229 228 227 225 225 224 223 222 222 221 221 220 221 222 223 224 225 225 225 226 225 224 224
254 256 257 261 263 264 268 269 271 274 271 270 272 270 270 274 275 282 292 296 296 293 293 302 303 301 317 329 321 322 323 320 320 318 316 315 314 315 315 314 315 315 315 316 315 314 312 308 304 298 291 281 271 263 255 248 243 238 236 233 231 230 229 227 227 226 224 224 223 222 222 222 221 221 220 220 221 222 223 225 225 225 226 226 225 225
251 253 253 259 263 261 263 265 265 267 265 265 268 265 266 270 273 280 286 289 294 287 278 289 292 292 310 322 315 316 319 317 316 314 313 315 316 317 318 318 319 319 319 318 318 319 317 313 309 305 299 290 278 266 256 249 243 238 235 233 230 228 227 225 225 224 223 222 222 221 221 221 221 220 220 220 221 221 222 224 225 224 225 226 226 224
251 252 249 252 257 257 261 266 265 264 262 265 267 262 262 264 263 272 279 278 285 285 271 271 282 291 303 310 309 311 314 314 314 313 315 318 318 319 319 321 322 322 321 321 322 323 322 319 315 311 307 300 286 270 258 250 244 239 235 232 230 227 225 223 223 222 221 221 221 221 220 220 220 220 220 220 221 221 222 223 223 223 224 226 226 225
253 254 251 252 256 258 263 266 265 266 264 264 265 261 260 262 260 265 272 271 278 286 276 269 278 291 299 303 307 310 312 313 314 316 320 322 322 322 321 321 323 323 322 323 325 326 326 324 320 316 314 308 294 277 262 252 244 238 234 230 228 225 222 221 220 220 219 219 220 220 219 219 219 219 219 220 221 221 222 222 222 222 223 225 225 224
254 254 252 253 256 259 265 265 261 263 266 265 266 263 260 261 259 258 262 268 275 281 281 280 279 283 292 300 305 306 308 311 314 317 321 322 323 322 321 321 323 325 326 327 328 329 329 328 326 322 320 315 303 286 269 255 244 236 232 228 225 223 220 219 219 218 218 218 218 218 218 218 218 217 217 218 219 221 221 222 222 222 223 224 224 224
254 254 253 253 256 259 262 263 261 262 265 266 265 265 262 260 258 256 260 266 268 268 278 287 284 281 289 299 301 301 305 309 312 314 317 319 319 320 321 322 324 327 329 330 331 332 332 332 331 329 327 325 315 298 277 258 244 235 230 224 221 219 217 216 216 216 216 216 216 217 217 217 217 216 216 216 218 219 220 221 221 222 222 223 222 222
253 255 254 254 257 259 259 261 261 261 264 265 264 264 263 261 260 260 262 265 265 267 275 282 283 284 291 296 296 299 304 307 309 312 313 315 317 320 322 323 324 328 332 333 334 335 335 335 336 336 334 333 328 312 287 262 245 234 226 219 216 214 212 212 213 214 214 215 215 215 215 215 215 215 215 215 216 218 219 219 220 220 220 221 221 221
251 255 256 255 259 260 258 260 261 261 263 264 264 265 263 262 263 263 264 265 263 266 273 276 279 286 292 294 295 298 302 305 307 309 311 313 316 321 323 323 324 329 333 336 336 337 337 338 340 341 341 341 338 328 303 268 243 229 219 213 209 208 208 209 211 212 213 213 214 214 213 213 213 213 213 214 215 216 217 217 217 217 218 219 220 221
249 253 256 256 259 259 257 260 262 264 266 265 264 266 263 261 263 262 263 263 260 263 270 272 277 286 292 297 300 298 298 302 304 307 312 314 317 321 323 323 325 329 334 338 339 339 339 340 342 344 346 348 348 343 322 278 238 222 213 208 206 205 206 207 209 210 211 212 212 212 212 211 211 212 212 212 214 215 215 215 215 215 216 218 219 221
248 252 254 255 259 260 259 260 264 268 268 263 262 263 260 257 259 261 262 261 257 259 266 271 277 285 291 298 300 296 296 300 304 309 315 316 317 319 321 322 325 329 334 338 340 341 341 342 344 346 349 353 355 354 343 301 235 217 209 205 204 204 204 205 207 208 209 210 211 211 210 210 209 210 211 212 212 213 213 213 213 214 216 217 219 220
247 250 254 254 257 261 259 261 265 265 263 263 266 267 263 259 257 257 260 261 257 258 266 274 280 285 288 291 290 288 291 298 307 312 313 313 314 315 317 321 325 330 334 338 342 343 344 345 346 348 351 355 359 1 359 343 245 217 208 204 204 203 203 205 205 206 208 209 209 209 208 207 208 209 210 211 211 212 212 212 212 213 215 217 218 219
246 248 253 254 256 260 261 261 262 260 259 264 271 267 262 263 262 262 265 266 262 261 265 270 274 277 282 284 281 278 284 296 307 309 307 308 310 310 314 319 325 330 335 339 343 345 346 348 349 349 352 357 1 4 7 11 356 211 206 204 203 202 203 205 205 205 206 207 208 207 205 205 207 208 208 209 210 210 210 211 211 213 214 216 217 219
245 248 251 253 254 258 259 254 254 262 268 268 268 265 263 265 266 267 271 270 263 259 260 263 266 271 277 281 277 274 281 295 304 305 305 309 311 310 312 319 326 332 335 339 343 346 348 350 352 353 354 357 2 6 9 19 44 124 186 196 199 200 201 201 202 204 204 205 205 204 202 203 205 205 205 207 208 209 209 210 210 212 213 215 217 219
246 247 250 252 252 255 257 254 257 269 273 268 266 268 267 264 262 263 270 271 263 258 258 260 264 268 274 277 275 272 280 293 299 302 306 313 315 314 315 319 326 332 335 339 343 346 349 351 354 358 358 357 359 5 10 17 45 100 143 172 185 192 195 197 199 201 201 201 201 200 199 201 202 202 203 205 206 208 208 208 210 211 212 214 217 220
246 247 247 250 252 254 257 260 262 266 266 264 266 268 267 265 261 262 269 271 266 260 258 259 263 268 271 271 268 266 274 283 289 296 305 314 316 317 319 321 325 330 334 338 342 345 349 351 354 359 2 0 356 358 9 21 53 136 154 165 174 182 188 192 194 196 196 197 197 196 197 199 199 200 202 204 205 207 207 208 209 211 212 215 218 220
246 248 246 248 252 252 253 258 260 259 262 267 269 268 268 267 263 264 269 271 267 263 260 259 263 267 265 262 259 259 268 275 282 288 296 305 312 316 319 321 324 327 331 336 341 344 347 351 354 357 2 3 0 357 3 29 85 164 181 183 183 185 187 189 190 191 192 193 193 194 196 197 197 198 201 203 204 206 207 208 209 211 213 217 219 221
242 245 244 245 248 249 250 256 260 260 263 269 271 268 266 264 262 264 268 268 265 263 261 260 262 263 260 255 256 262 268 273 281 287 290 298 306 311 315 318 320 322 325 329 336 341 345 349 352 355 357 1 6 7 7 32 123 172 186 188 188 189 189 188 187 187 188 189 190 192 194 196 197 198 200 202 203 205 206 208 210 213 216 218 220 221
240 241 243 244 247 247 248 254 262 264 265 267 266 264 261 261 261 262 264 265 263 262 262 258 256 255 254 251 253 260 265 269 278 286 290 294 299 304 309 313 314 316 318 319 324 333 340 344 345 348 351 356 8 20 28 70 165 182 187 188 190 190 188 186 185 184 185 187 189 192 194 195 197 199 200 202 203 205 207 209 212 215 217 219 220 222
238 240 242 244 245 247 249 254 263 270 270 264 255 252 254 259 262 263 266 268 262 260 262 257 250 249 248 246 248 256 264 270 277 282 286 289 292 297 304 308 307 308 310 311 312 317 326 333 337 338 341 347 354 14 92 155 181 188 189 191 193 191 187 185 185 185 186 188 190 192 194 195 197 199 201 202 204 206 209 212 214 217 219 220 221 223
238 239 241 241 242 246 247 250 257 265 269 259 248 249 251 255 264 269 268 263 257 256 259 257 253 249 247 246 248 255 264 273 277 278 280 283 286 291 296 299 300 300 301 303 302 301 305 315 322 324 325 329 326 303 214 187 186 187 191 194 192 189 187 188 188 188 189 191 192 193 195 196 198 200 203 205 207 209 212 214 216 218 220 221 222 224
238 239 242 242 241 241 241 244 250 261 264 254 252 257 253 252 259 266 264 259 256 255 255 256 255 252 250 252 255 258 264 271 275 276 276 277 281 285 288 291 293 293 293 294 293 290 289 294 302 306 306 304 295 279 244 215 200 192 193 194 190 186 188 191 193 195 196 196 197 198 199 201 203 205 207 209 211 212 214 216 217 219 221 222 223 225
240 241 244 246 245 244 247 251 256 264 264 254 254 262 260 254 255 259 262 262 260 256 254 255 256 256 257 259 261 263 265 268 272 274 274 274 277 280 282 283 285 287 287 287 285 282 280 281 285 286 286 281 270 261 249 233 219 208 201 196 190 188 190 192 195 198 200 201 202 203 204 205 207 208 210 211 213 214 216 217 218 220 221 222 224 226
244 243 246 247 247 250 255 257 258 261 262 257 256 261 264 260 258 258 260 261 261 259 257 256 257 259 261 262 262 264 266 268 269 271 271 273 275 276 276 278 280 281 282 282 279 276 274 276 276 274 272 267 257 251 246 239 229 220 210 202 197 195 195 196 198 200 203 204 205 206 206 208 209 211 212 214 215 216 217 218 219 220 222 223 224 226
244 242 244 246 246 248 253 253 252 255 258 257 257 259 260 261 261 260 259 260 261 261 260 259 260 261 261 261 261 262 265 267 268 269 269 270 272 272 273 274 275 276 277 277 275 272 269 270 270 267 264 259 252 247 243 239 234 226 217 209 205 203 202 202 203 205 206 207 207 208 208 210 211 213 214 216 217 218 219 220 221 222 223 224 225 227
242 240 242 245 245 248 253 253 253 256 258 257 257 258 258 259 259 260 260 262 263 263 262 261 261 260 260 261 261 262 265 266 267 267 268 268 269 270 271 271 272 273 273 272 271 269 267 266 264 262 260 257 250 244 241 239 235 229 223 217 213 210 209 208 208 209 209 209 209 209 210 212 213 214 216 217 218 219 221 221 222 223 225 226 226 228
241 239 241 245 246 249 253 255 256 259 260 257 255 256 257 258 259 260 261 261 262 263 262 261 261 260 261 261 262 262 263 266 267 267 267 267 268 269 269 270 270 270 269 268 267 265 265 264 260 257 257 255 251 245 240 239 236 232 228 224 220 216 214 214 213 213 213 212 212 213 213 215 216 216 218 219 220 221 222 223 223 225 226 227 228 229
241 241 243 244 246 248 251 251 252 255 257 256 255 255 256 258 259 260 260 260 260 260 261 261 262 262 261 261 262 262 262 265 267 267 266 267 268 268 268 269 269 268 267 266 264 263 262 261 258 255 254 254 252 247 242 239 238 235 232 229 225 222 219 218 217 217 217 217 217 218 218 219 220 220 220 221 221 223 224 225 226 227 228 230 230 231
242 243 243 243 246 249 250 249 249 252 256 258 258 256 256 257 258 258 257 258 258 259 260 260 261 262 261 261 260 260 261 263 265 266 267 267 268 268 268 268 267 268 267 266 265 263 261 260 259 257 255 254 252 249 245 242 238 236 234 232 229 227 225 222 221 221 221 221 221 221 221 221 222 222 222 223 223 224 225 227 228 229 230 231 232 232